Starlink 30138

operational
NORAD ID: 57605 Int'l Des: 2023-119 Owner: SPXS Country: US Constellation: starlink
LEOCIRCULAR

Starlink 30138について

説明を読み込み中...

リアルタイム位置

3D地球を読み込み中...

次回通過

高度履歴

Altitude vs Time

uPlot chart will show altitude changes over time

軌道要素

1 57605U 23119D 25257.45348269 -.00000149 00000-0 40613-5 0 9995
2 57605 43.0049 319.3822 0001513 271.0138 89.0531 15.02537114116570
Epoch: Sep 14, 2025 • Age: 31 hours

現在のステータス

高度 558.5 km
速度 7.58 km/s
衛星直下点 8.88°N, 141.24°W
打ち上げ日 Aug 11, 2023
運用期間 2 years
タイプ internet

技術仕様

分類 Payload
質量 730.00 kg
乾燥質量 700.00 kg
総質量 730.00 kg
長さ 0.30 m
直径 4.10 m
スパン 29.00 m
形状 Box + pan
製造者 SPXS
バスタイプ Starlink V2M
フェーズステータス In Orbit
所有者/国 SPXS/US

大規模コンステレーション

Loading constellations...